sat.trackr.live / text

‹ back to catalog

STARLINK-1448

NORAD 45665 · 2020-035J

PAYLOAD ACTIVE UNKNOWN

§ Identity

Operator
Country
US
Launch date
2020-06-04
Launch site
AFETR
Launch vehicle
Mass (kg)
RCS (m²)

Purposes: comms

External: N2YO · Heavens-Above · Gunter

§ Orbital elements

Epoch: 2026-05-25T03:10:26.426784Z

Period
91.93 min
Inclination
53.0451°
Eccentricity
0.0006643
Mean motion
15.66435117 rev/d
Perigee alt
364.6 km
Apogee alt
373.6 km
Semi-major
6,747.3 km
B*
5.0467e-4
RAAN
40.2076°
Arg perigee
64.5040°
Mean anomaly
295.6662°
Rev number
33,085

§ Raw data

STARLINK-14481 45665U 20035J   26145.13225031  .00053317  00000+0  50467-3 0  99942 45665  53.0451  40.2076 0006643  64.5040 295.6662 15.66435117330857

JSON: /api/v1/satellites/45665 · /tle

For live sub-satellite position, see the globe view (requires WebGL).

§ Visibility from observer

Set your observer location to see the next 7 days of passes ≥ 10°. The values pass through the URL so the page stays shareable.

No JS? Fill the form by hand. The geolocation button needs JavaScript.